Preview of NWS' New Version of Forecast
This preview is not operational and should not be used for support decisions.

Regional Weather Roundup (RWR)

Issued by National Weather Service (NWS)

                            
000
ASUS43 KLSX 190407
RWRMO 

WEATHER SUMMARY FOR MISSOURI
NATIONAL WEATHER SERVICE SPRINGFIELD MO
1000 PM CST MON FEB 18 2019

NOTE: "FAIR" INDICATES FEW OR NO CLOUDS BELOW 12,000 FEET WITH NO
       SIGNIFICANT WEATHER AND/OR OBSTRUCTIONS TO VISIBILITY.
       CURRENT SKY AND/OR WEATHER CONDITIONS ARE NOT AVAILABLE FOR
       CHILLICOTHE AND FARMINGTON.

MOZ001>031-035>038-043-044-053-054-190500-
...NORTHERN AND WESTERN MISSOURI...
  
CITY           SKY/WX    TMP DP  RH WIND       PRES   REMARKS
KANSAS CTY INT CLOUDY    22  14  71 E3        30.52S                  
KANSAS C DTWN  CLOUDY    26  15  63 NE5       30.54R WCI  20          
LEE'S SUMMIT   CLOUDY    22  16  78 NE3       30.52R                  
ST JOSEPH      PTCLDY    17  13  84 N8        30.55R WCI   7          
CHILLICOTHE      N/A     23  17  78 CALM      30.57R                  
KIRKSVILLE     MOCLDY    22  18  85 N5        30.54S WCI  16          
     
$$
MOZ066>068-077>081-088>096-101>105-190500-
...SOUTHWEST MISSOURI...
  
CITY           SKY/WX    TMP DP  RH WIND       PRES   REMARKS
SPRINGFIELD    MOCLDY    26  17  68 NE9       30.46R WCI  17          
JOPLIN         CLOUDY    26  18  71 NE9       30.48S WCI  17          
BRANSON        CLOUDY    28  19  69 CALM      30.47R                  
               
$$
MOZ032>034-039>042-045>050-055>058-069>072-190500-
...CENTRAL MISSOURI...  
  
CITY           SKY/WX    TMP DP  RH WIND       PRES   REMARKS
COLUMBIA       CLOUDY    24  15  68 NE5       30.53R WCI  18          
JEFFERSON CITY CLOUDY    25  15  66 CALM      30.55R                  
ROLLA          CLOUDY    22  15  75 NE6       30.50R WCI  14          
SEDALIA        CLOUDY    20  16  84 NE6       30.54S WCI  12          
WHITEMAN AFB   MOCLDY    20  15  82 NE7       30.51S WCI  11          
WARRENSBURG    CLOUDY    19  16  86 CALM      30.54S                  
OSAGE BEACH    CLOUDY    23  17  78 N5        30.53S WCI  17          
               
$$
MOZ051-052-059>065-190500-
...EAST CENTRAL MISSOURI...
  
CITY           SKY/WX    TMP DP  RH WIND       PRES   REMARKS
ST LOUIS INTL  CLOUDY    28  17  63 NE7       30.55R WCI  21          
SPIRIT OF STL  CLOUDY    28  18  66 NE5       30.54S WCI  23          
ST CHARLES     CLOUDY    29  19  66 N5        30.55S WCI  24          
                   
$$
MOZ072>076-082>087-097>100-106>115-190500-
...SOUTH CENTRAL AND SOUTHEAST MISSOURI...
  
CITY           SKY/WX    TMP DP  RH WIND       PRES   REMARKS
CAPE GIRARDEAU FAIR      30  21  69 NE10      30.52S WCI  21          
FARMINGTON     CLOUDY    25  19  78 CALM      30.51R                  
POPLAR BLUFF   FAIR      31  23  72 NE14G20   30.52R WCI  21          
WEST PLAINS    PTCLDY    28  20  71 NE8       30.46R WCI  20          
                                       
$$